Time,TemperatureF,DewpointF,PressureIn,WindDirection,WindDirectionDegrees,WindSpeedMPH,WindSpeedGustMPH,Humidity,HourlyPrecipIn,Conditions,Clouds,dailyrainin,SolarRadiationWatts/m^2,SoftwareType,DateUTC
2013-02-07 00:01:00,26.0,19.0,-100.00,ESE,114,1.0,8.0,74,0.00,,,0.00,0.000000,,2013-02-07 07:01:00,
2013-02-07 00:11:00,26.0,19.0,-100.00,ESE,114,1.0,8.0,74,0.00,,,0.00,0.000000,,2013-02-07 07:11:00,
2013-02-07 00:22:00,26.0,19.0,-100.00,ESE,114,1.0,8.0,74,0.00,,,0.00,0.000000,,2013-02-07 07:22:00,
2013-02-07 00:42:00,24.0,16.0,-100.00,WNW,287,2.0,3.0,72,0.00,,,0.00,0.000000,,2013-02-07 07:42:00,
2013-02-07 00:52:00,24.0,16.0,-100.00,WNW,287,2.0,3.0,72,0.00,,,0.00,0.000000,,2013-02-07 07:52:00,
2013-02-07 01:01:00,24.0,16.0,-100.00,WNW,287,2.0,3.0,72,0.00,,,0.00,0.000000,,2013-02-07 08:01:00,
2013-02-07 01:11:00,24.0,16.0,-100.00,WNW,287,2.0,3.0,72,0.00,,,0.00,0.000000,,2013-02-07 08:11:00,
2013-02-07 01:21:00,24.0,16.0,-100.00,WNW,287,2.0,3.0,72,0.00,,,0.00,0.000000,,2013-02-07 08:21:00,
2013-02-07 01:42:00,24.0,13.0,-100.00,North,353,3.0,5.0,63,0.00,,,0.00,0.000000,,2013-02-07 08:42:00,
2013-02-07 01:52:00,24.0,13.0,-100.00,North,353,3.0,5.0,63,0.00,,,0.00,0.000000,,2013-02-07 08:52:00,
2013-02-07 02:02:00,24.0,13.0,-100.00,North,353,3.0,5.0,63,0.00,,,0.00,0.000000,,2013-02-07 09:02:00,
2013-02-07 02:11:00,24.0,13.0,-100.00,North,353,3.0,5.0,63,0.00,,,0.00,0.000000,,2013-02-07 09:11:00,
2013-02-07 02:21:00,24.0,13.0,-100.00,North,353,3.0,5.0,63,0.00,,,0.00,0.000000,,2013-02-07 09:21:00,
2013-02-07 02:42:00,20.0,11.0,-100.00,WNW,285,2.0,4.0,68,0.00,,,0.00,0.000000,,2013-02-07 09:42:00,
2013-02-07 02:52:00,20.0,11.0,-100.00,WNW,285,2.0,4.0,68,0.00,,,0.00,0.000000,,2013-02-07 09:52:00,
2013-02-07 03:01:00,20.0,11.0,-100.00,WNW,285,2.0,4.0,68,0.00,,,0.00,0.000000,,2013-02-07 10:01:00,
2013-02-07 03:11:00,20.0,11.0,-100.00,WNW,285,2.0,4.0,68,0.00,,,0.00,0.000000,,2013-02-07 10:11:00,
2013-02-07 03:22:00,20.0,11.0,-100.00,WNW,285,2.0,4.0,68,0.00,,,0.00,0.000000,,2013-02-07 10:22:00,
2013-02-07 03:42:00,17.0,9.0,-100.00,WSW,250,2.0,3.0,69,0.00,,,0.00,0.000000,,2013-02-07 10:42:00,
2013-02-07 03:52:00,17.0,9.0,-100.00,WSW,250,2.0,3.0,69,0.00,,,0.00,0.000000,,2013-02-07 10:52:00,
2013-02-07 04:01:00,17.0,9.0,-100.00,WSW,250,2.0,3.0,69,0.00,,,0.00,0.000000,,2013-02-07 11:01:00,
2013-02-07 04:11:00,17.0,9.0,-100.00,WSW,250,2.0,3.0,69,0.00,,,0.00,0.000000,,2013-02-07 11:11:00,
2013-02-07 04:22:00,17.0,9.0,-100.00,WSW,250,2.0,3.0,69,0.00,,,0.00,0.000000,,2013-02-07 11:22:00,
2013-02-07 04:44:00,16.0,6.0,-100.00,WNW,287,2.0,3.0,63,0.00,,,0.00,0.000000,,2013-02-07 11:44:00,
2013-02-07 04:53:00,16.0,6.0,-100.00,WNW,287,2.0,3.0,63,0.00,,,0.00,0.000000,,2013-02-07 11:53:00,
2013-02-07 05:02:00,16.0,6.0,-100.00,WNW,287,2.0,3.0,63,0.00,,,0.00,0.000000,,2013-02-07 12:02:00,
2013-02-07 05:11:00,16.0,6.0,-100.00,WNW,287,2.0,3.0,63,0.00,,,0.00,0.000000,,2013-02-07 12:11:00,
2013-02-07 05:22:00,16.0,6.0,-100.00,WNW,287,2.0,3.0,63,0.00,,,0.00,0.000000,,2013-02-07 12:22:00,
2013-02-07 05:42:00,15.0,4.0,-100.00,NW,308,2.0,3.0,61,0.00,,,0.00,0.000000,,2013-02-07 12:42:00,
2013-02-07 05:53:00,15.0,4.0,-100.00,NW,308,2.0,3.0,61,0.00,,,0.00,0.000000,,2013-02-07 12:53:00,
2013-02-07 06:03:00,15.0,4.0,-100.00,NW,308,2.0,3.0,61,0.00,,,0.00,0.000000,,2013-02-07 13:03:00,
2013-02-07 06:12:00,15.0,4.0,-100.00,NW,308,2.0,3.0,61,0.00,,,0.00,0.000000,,2013-02-07 13:12:00,
2013-02-07 06:22:00,15.0,4.0,-100.00,NW,308,2.0,3.0,61,0.00,,,0.00,0.000000,,2013-02-07 13:22:00,
2013-02-07 06:42:00,14.0,2.0,-100.00,West,276,3.0,3.0,59,0.00,,,-99.99,0.000000,,2013-02-07 13:42:00,
2013-02-07 06:52:00,14.0,2.0,-100.00,West,276,3.0,3.0,59,0.00,,,-99.99,0.000000,,2013-02-07 13:52:00,
2013-02-07 07:01:00,14.0,2.0,-100.00,West,276,3.0,3.0,59,0.00,,,-99.99,0.000000,,2013-02-07 14:01:00,
2013-02-07 07:11:00,14.0,2.0,-100.00,West,276,3.0,3.0,59,0.00,,,-99.99,0.000000,,2013-02-07 14:11:00,
2013-02-07 07:21:00,14.0,2.0,-100.00,West,276,3.0,3.0,59,0.00,,,-99.99,0.000000,,2013-02-07 14:21:00,
2013-02-07 07:42:00,15.0,4.0,-100.00,West,281,2.0,3.0,60,0.00,,,0.00,14.000000,,2013-02-07 14:42:00,
2013-02-07 07:52:00,15.0,4.0,-100.00,West,281,2.0,3.0,60,0.00,,,0.00,14.000000,,2013-02-07 14:52:00,
2013-02-07 08:02:00,15.0,4.0,-100.00,West,281,2.0,3.0,60,0.00,,,0.00,14.000000,,2013-02-07 15:02:00,
2013-02-07 08:11:00,15.0,4.0,-100.00,West,281,2.0,3.0,60,0.00,,,0.00,14.000000,,2013-02-07 15:11:00,
2013-02-07 08:22:00,15.0,4.0,-100.00,West,281,2.0,3.0,60,0.00,,,0.00,14.000000,,2013-02-07 15:22:00,
2013-02-07 08:42:00,27.0,5.0,-100.00,ENE,61,1.0,2.0,38,0.00,,,0.00,251.000000,,2013-02-07 15:42:00,
2013-02-07 08:52:00,27.0,5.0,-100.00,ENE,61,1.0,2.0,38,0.00,,,0.00,251.000000,,2013-02-07 15:52:00,
2013-02-07 09:01:00,27.0,5.0,-100.00,ENE,61,1.0,2.0,38,0.00,,,0.00,251.000000,,2013-02-07 16:01:00,
2013-02-07 09:11:00,27.0,5.0,-100.00,ENE,61,1.0,2.0,38,0.00,,,0.00,251.000000,,2013-02-07 16:11:00,
2013-02-07 09:21:00,27.0,5.0,-100.00,ENE,61,1.0,2.0,38,0.00,,,0.00,251.000000,,2013-02-07 16:21:00,
2013-02-07 09:42:00,27.0,5.0,-100.00,East,81,2.0,4.0,38,0.00,,,0.00,501.000000,,2013-02-07 16:42:00,
2013-02-07 09:52:00,27.0,5.0,-100.00,East,81,2.0,4.0,38,0.00,,,0.00,501.000000,,2013-02-07 16:52:00,
2013-02-07 10:01:00,27.0,5.0,-100.00,East,81,2.0,4.0,38,0.00,,,0.00,501.000000,,2013-02-07 17:01:00,
2013-02-07 10:11:00,27.0,5.0,-100.00,East,81,2.0,4.0,38,0.00,,,0.00,501.000000,,2013-02-07 17:11:00,
2013-02-07 10:21:00,27.0,5.0,-100.00,East,81,2.0,4.0,38,0.00,,,0.00,501.000000,,2013-02-07 17:21:00,
2013-02-07 10:23:00,30.0,6.0,-100.00,ESE,121,2.0,4.0,36,0.00,,,0.00,690.000000,,2013-02-07 17:23:00,
2013-02-07 10:43:00,30.0,6.0,-100.00,ESE,121,2.0,4.0,36,0.00,,,0.00,690.000000,,2013-02-07 17:43:00,
2013-02-07 10:52:00,30.0,6.0,-100.00,ESE,121,2.0,4.0,36,0.00,,,0.00,690.000000,,2013-02-07 17:52:00,
2013-02-07 11:01:00,30.0,6.0,-100.00,ESE,121,2.0,4.0,36,0.00,,,0.00,690.000000,,2013-02-07 18:01:00,
2013-02-07 11:11:00,30.0,6.0,-100.00,ESE,121,2.0,4.0,36,0.00,,,0.00,690.000000,,2013-02-07 18:11:00,
2013-02-07 11:42:00,33.0,9.0,-100.00,SE,129,3.0,4.0,36,0.00,,,0.00,808.000000,,2013-02-07 18:42:00,
2013-02-07 11:52:00,33.0,9.0,-100.00,SE,129,3.0,4.0,36,0.00,,,0.00,808.000000,,2013-02-07 18:52:00,
2013-02-07 12:01:00,33.0,9.0,-100.00,SE,129,3.0,4.0,36,0.00,,,0.00,808.000000,,2013-02-07 19:01:00,
2013-02-07 12:11:00,33.0,9.0,-100.00,SE,129,3.0,4.0,36,0.00,,,0.00,808.000000,,2013-02-07 19:11:00,
2013-02-07 12:22:00,33.0,9.0,-100.00,SE,129,3.0,4.0,36,0.00,,,0.00,808.000000,,2013-02-07 19:22:00,
2013-02-07 12:42:00,35.0,7.0,-100.00,South,178,2.0,5.0,31,0.00,,,0.00,848.000000,,2013-02-07 19:42:00,
2013-02-07 12:52:00,35.0,7.0,-100.00,South,178,2.0,5.0,31,0.00,,,0.00,848.000000,,2013-02-07 19:52:00,
2013-02-07 13:01:00,35.0,7.0,-100.00,South,178,2.0,5.0,31,0.00,,,0.00,848.000000,,2013-02-07 20:01:00,
2013-02-07 13:11:00,35.0,7.0,-100.00,South,178,2.0,5.0,31,0.00,,,0.00,848.000000,,2013-02-07 20:11:00,
2013-02-07 13:21:00,35.0,7.0,-100.00,South,178,2.0,5.0,31,0.00,,,0.00,848.000000,,2013-02-07 20:21:00,
2013-02-07 13:42:00,39.0,2.0,-100.00,ESE,118,2.0,5.0,21,0.00,,,0.00,813.000000,,2013-02-07 20:42:00,
2013-02-07 13:52:00,39.0,2.0,-100.00,ESE,118,2.0,5.0,21,0.00,,,0.00,813.000000,,2013-02-07 20:52:00,
2013-02-07 14:02:00,39.0,2.0,-100.00,ESE,118,2.0,5.0,21,0.00,,,0.00,813.000000,,2013-02-07 21:02:00,
2013-02-07 14:11:00,39.0,2.0,-100.00,ESE,118,2.0,5.0,21,0.00,,,0.00,813.000000,,2013-02-07 21:11:00,
2013-02-07 14:21:00,39.0,2.0,-100.00,ESE,118,2.0,5.0,21,0.00,,,0.00,813.000000,,2013-02-07 21:21:00,
2013-02-07 14:42:00,40.0,-5.0,-100.00,SE,140,3.0,6.0,14,0.00,,,0.00,701.000000,,2013-02-07 21:42:00,
2013-02-07 14:52:00,40.0,-5.0,-100.00,SE,140,3.0,6.0,14,0.00,,,0.00,701.000000,,2013-02-07 21:52:00,
2013-02-07 15:02:00,40.0,-5.0,-100.00,SE,140,3.0,6.0,14,0.00,,,0.00,701.000000,,2013-02-07 22:02:00,
2013-02-07 15:11:00,40.0,-5.0,-100.00,SE,140,3.0,6.0,14,0.00,,,0.00,701.000000,,2013-02-07 22:11:00,
2013-02-07 15:21:00,40.0,-5.0,-100.00,SE,140,3.0,6.0,14,0.00,,,0.00,701.000000,,2013-02-07 22:21:00,
2013-02-07 15:42:00,40.0,6.0,-100.00,SE,132,3.0,5.0,24,0.00,,,0.00,523.000000,,2013-02-07 22:42:00,
2013-02-07 15:52:00,40.0,6.0,-100.00,SE,132,3.0,5.0,24,0.00,,,0.00,523.000000,,2013-02-07 22:52:00,
2013-02-07 16:01:00,40.0,6.0,-100.00,SE,132,3.0,5.0,24,0.00,,,0.00,523.000000,,2013-02-07 23:01:00,
2013-02-07 16:11:00,40.0,6.0,-100.00,SE,132,3.0,5.0,24,0.00,,,0.00,523.000000,,2013-02-07 23:11:00,
2013-02-07 16:21:00,40.0,6.0,-100.00,SE,132,3.0,5.0,24,0.00,,,0.00,523.000000,,2013-02-07 23:21:00,
2013-02-07 16:42:00,31.0,9.0,-100.00,WNW,296,3.0,3.0,39,0.00,,,0.00,232.000000,,2013-02-07 23:42:00,
2013-02-07 16:52:00,31.0,9.0,-100.00,WNW,296,3.0,3.0,39,0.00,,,0.00,232.000000,,2013-02-07 23:52:00,
2013-02-07 18:52:00,33.0,-6.0,-100.00,WSW,252,3.0,7.0,18,0.00,,,0.00,3.000000,,2013-02-08 01:52:00,
2013-02-07 19:01:00,33.0,-6.0,-100.00,WSW,252,3.0,7.0,18,0.00,,,0.00,3.000000,,2013-02-08 02:01:00,
2013-02-07 19:11:00,33.0,-6.0,-100.00,WSW,252,3.0,7.0,18,0.00,,,0.00,3.000000,,2013-02-08 02:11:00,
2013-02-07 19:21:00,33.0,-6.0,-100.00,WSW,252,3.0,7.0,18,0.00,,,0.00,3.000000,,2013-02-08 02:21:00,
2013-02-07 19:42:00,26.0,3.0,-100.00,SW,219,2.0,6.0,37,0.00,,,0.00,0.000000,,2013-02-08 02:42:00,
2013-02-07 19:52:00,26.0,3.0,-100.00,SW,219,2.0,6.0,37,0.00,,,0.00,0.000000,,2013-02-08 02:52:00,
2013-02-07 20:02:00,26.0,3.0,-100.00,SW,219,2.0,6.0,37,0.00,,,0.00,0.000000,,2013-02-08 03:02:00,
2013-02-07 20:12:00,26.0,3.0,-100.00,SW,219,2.0,6.0,37,0.00,,,0.00,0.000000,,2013-02-08 03:12:00,
2013-02-07 20:22:00,26.0,3.0,-100.00,SW,219,2.0,6.0,37,0.00,,,0.00,0.000000,,2013-02-08 03:22:00,
2013-02-07 20:42:00,24.0,0.0,-100.00,West,275,2.0,4.0,34,0.00,,,0.00,0.000000,,2013-02-08 03:42:00,
2013-02-07 20:52:00,24.0,0.0,-100.00,West,275,2.0,4.0,34,0.00,,,0.00,0.000000,,2013-02-08 03:52:00,
2013-02-07 21:02:00,24.0,0.0,-100.00,West,275,2.0,4.0,34,0.00,,,0.00,0.000000,,2013-02-08 04:02:00,
2013-02-07 21:11:00,24.0,0.0,-100.00,West,275,2.0,4.0,34,0.00,,,0.00,0.000000,,2013-02-08 04:11:00,
2013-02-07 21:21:00,24.0,0.0,-100.00,West,275,2.0,4.0,34,0.00,,,0.00,0.000000,,2013-02-08 04:21:00,
2013-02-07 21:42:00,19.0,1.0,-100.00,WNW,298,2.0,3.0,44,0.00,,,0.00,0.000000,,2013-02-08 04:42:00,
2013-02-07 21:52:00,19.0,1.0,-100.00,WNW,298,2.0,3.0,44,0.00,,,0.00,0.000000,,2013-02-08 04:52:00,
2013-02-07 22:02:00,19.0,1.0,-100.00,WNW,298,2.0,3.0,44,0.00,,,0.00,0.000000,,2013-02-08 05:02:00,
2013-02-07 22:11:00,19.0,1.0,-100.00,WNW,298,2.0,3.0,44,0.00,,,0.00,0.000000,,2013-02-08 05:11:00,
2013-02-07 22:22:00,19.0,1.0,-100.00,WNW,298,2.0,3.0,44,0.00,,,0.00,0.000000,,2013-02-08 05:22:00,
2013-02-07 22:42:00,19.0,0.0,-100.00,WNW,286,3.0,4.0,43,0.00,,,0.00,0.000000,,2013-02-08 05:42:00,
2013-02-07 22:52:00,19.0,0.0,-100.00,WNW,286,3.0,4.0,43,0.00,,,0.00,0.000000,,2013-02-08 05:52:00,
2013-02-07 23:01:00,19.0,0.0,-100.00,WNW,286,3.0,4.0,43,0.00,,,0.00,0.000000,,2013-02-08 06:01:00,
2013-02-07 23:11:00,19.0,0.0,-100.00,WNW,286,3.0,4.0,43,0.00,,,0.00,0.000000,,2013-02-08 06:11:00,
2013-02-07 23:21:00,19.0,0.0,-100.00,WNW,286,3.0,4.0,43,0.00,,,0.00,0.000000,,2013-02-08 06:21:00,
2013-02-07 23:42:00,18.0,3.0,-100.00,WNW,295,2.0,3.0,50,0.00,,,0.00,0.000000,,2013-02-08 06:42:00,
2013-02-07 23:52:00,18.0,3.0,-100.00,WNW,295,2.0,3.0,50,0.00,,,0.00,0.000000,,2013-02-08 06:52:00,